Le nostre stazioni meteo in Italia

Pubblicità
Il mio iltempo24.it
Aviano, Italia (16036): Temperatura & dewpoint: 09.11.2018 08:00:00 - 15.11.2018 08:00:00 (CET)Aviano, Italia (16036): velocità del vento: 09.11.2018 08:00:00 - 15.11.2018 08:00:00 (CET)Aviano, Italia (16036): direzione del vento: 09.11.2018 08:00:00 - 15.11.2018 08:00:00 (CET)Aviano, Italia (16036): reduced air pressure: 09.11.2018 08:00:00 - 15.11.2018 08:00:00 (CET)Aviano, Italia (16036): visibility: 09.11.2018 08:00:00 - 15.11.2018 08:00:00 (CET)
Data & Tempo tt [°C] td [°C] ff [km/h] ff [kn] dd ppp [hPa] vv [km]
15.11.2018 08:00:00 10,0 7,0 8 4 OSO - 10
15.11.2018 07:00:00 9,0 5,9 5 3 ONO 1026,5 15
15.11.2018 06:00:00 10,0 8,0 4 2 SSE - 10
15.11.2018 05:00:00 9,0 8,0 5 3 NO - 10
15.11.2018 04:00:00 - - - - - - -
15.11.2018 03:00:00 - - - - - - -
15.11.2018 02:00:00 - - - - - - -
15.11.2018 01:00:00 - - - - - - -
15.11.2018 00:00:00 - - - - - - -
14.11.2018 23:00:00 - - - - - - -
14.11.2018 22:00:00 10,0 8,8 8 4 NE 1027,3 15
14.11.2018 21:00:00 10,0 8,0 9 5 NE - 10
14.11.2018 20:00:00 11,0 9,0 13 7 NE - 10
14.11.2018 19:00:00 11,0 9,4 9 5 NNE 1026,9 15
14.11.2018 18:00:00 14,0 12,0 5 3 NE - 10
14.11.2018 17:00:00 16,0 11,0 5 3 NNE - 10
14.11.2018 16:00:00 18,0 10,6 5 3 ENE 1026,6 25
14.11.2018 15:00:00 19,0 11,0 5 3 E - 10
14.11.2018 14:00:00 19,0 11,0 2 1 N - 10
14.11.2018 13:00:00 18,2 10,3 8 4 ENE 1027,7 25
14.11.2018 12:00:00 17,0 11,0 8 4 ENE - 10
14.11.2018 11:00:00 17,0 11,0 16 9 ESE - 10
14.11.2018 10:00:00 16,8 10,7 11 6 ENE 1029,2 25
14.11.2018 09:00:00 15,0 12,0 5 3 ENE - 10
14.11.2018 08:00:00 13,0 10,0 11 6 NE - 10
14.11.2018 07:00:00 11,2 9,5 16 9 NNE 1028,5 10
14.11.2018 06:00:00 9,0 8,0 11 6 NNE - 10
14.11.2018 05:00:00 8,0 7,0 9 5 NE - 10
14.11.2018 04:00:00 - - - - - - -
14.11.2018 03:00:00 - - - - - - -
14.11.2018 02:00:00 - - - - - - -
14.11.2018 01:00:00 - - - - - - -
14.11.2018 00:00:00 - - - - - - -
13.11.2018 23:00:00 - - - - - - -
13.11.2018 22:00:00 11,8 10,7 8 4 NE 1028,3 2,0
13.11.2018 21:00:00 13,0 12,0 8 4 NNE - 2,0
13.11.2018 20:00:00 14,0 13,0 2 1 NNE - 2,1
13.11.2018 19:00:00 14,0 12,6 4 2 E 1027,2 1,8
13.11.2018 18:00:00 14,0 13,0 4 2 ESE - 1,8
13.11.2018 17:00:00 14,0 12,0 4 2 NE - 2,0
13.11.2018 16:00:00 14,2 12,2 4 2 N 1026,7 2,2
13.11.2018 15:00:00 14,0 12,0 4 2 NO - 2,0
13.11.2018 14:00:00 14,0 12,0 5 3 O - 2,0
13.11.2018 13:00:00 14,2 12,6 4 2 S 1027,1 2,3
13.11.2018 12:00:00 14,0 12,0 5 3 S - 1,3
13.11.2018 11:00:00 13,0 11,0 4 2 SSO - 0,7
13.11.2018 10:00:00 13,2 11,3 4 2 OSO 1027,3 0,3
13.11.2018 09:00:00 13,0 11,0 2 1 O - 0,2
13.11.2018 08:00:00 13,0 11,0 2 1 E - 0,4
13.11.2018 07:00:00 13,0 10,7 2 1 E 1026,5 0,5
13.11.2018 06:00:00 13,0 11,0 4 2 ENE - 0,8
13.11.2018 05:00:00 13,0 11,0 4 2 ENE - 0,7
13.11.2018 04:00:00 - - - - - - -
13.11.2018 03:00:00 - - - - - - -
13.11.2018 02:00:00 - - - - - - -
13.11.2018 01:00:00 - - - - - - -
13.11.2018 00:00:00 - - - - - - -
12.11.2018 23:00:00 - - - - - - -
12.11.2018 22:00:00 14,0 14,0 2 1 SSE 1026,2 2,0
12.11.2018 21:00:00 14,0 14,0 4 2 S - 2,5
12.11.2018 20:00:00 14,0 14,0 4 2 S - 3,0
12.11.2018 19:00:00 13,4 12,0 5 3 OSO 1026,4 3,0
12.11.2018 18:00:00 15,0 14,0 8 4 S - 7
12.11.2018 17:00:00 16,0 13,0 4 2 SSO - 10
12.11.2018 16:00:00 16,2 13,1 0 0 N 1025,7 12
12.11.2018 15:00:00 16,0 13,0 0 0 N - 10
12.11.2018 14:00:00 17,0 13,0 4 2 ONO - 10
12.11.2018 13:00:00 17,0 13,1 5 3 S 1025,7 6
12.11.2018 12:00:00 17,0 14,0 8 4 SSO - 6
12.11.2018 11:00:00 16,0 13,0 5 3 S - 7
12.11.2018 10:00:00 14,6 12,1 4 2 OSO 1026,1 8
12.11.2018 09:00:00 12,0 10,0 2 1 N - 10
12.11.2018 08:00:00 11,0 9,0 5 3 NNE - 8
12.11.2018 07:00:00 10,4 8,5 8 4 NNE 1024,9 6
12.11.2018 06:00:00 10,0 9,0 5 3 NE - 6
12.11.2018 05:00:00 10,0 9,0 8 4 N - 10
12.11.2018 04:00:00 - - - - - - -
12.11.2018 03:00:00 - - - - - - -
12.11.2018 02:00:00 - - - - - - -
12.11.2018 01:00:00 - - - - - - -
12.11.2018 00:00:00 - - - - - - -
11.11.2018 23:00:00 - - - - - - -
11.11.2018 22:00:00 - - - - - - -
11.11.2018 21:00:00 - - - - - - -
11.11.2018 20:00:00 - - - - - - -
11.11.2018 19:00:00 - - - - - - -
11.11.2018 18:00:00 - - - - - - -
11.11.2018 17:00:00 - - - - - - -
11.11.2018 16:00:00 - - - - - - -
11.11.2018 15:00:00 - - - - - - -
11.11.2018 14:00:00 - - - - - - -
11.11.2018 13:00:00 - - - - - - -
11.11.2018 12:00:00 - - - - - - -
11.11.2018 11:00:00 - - - - - - -
11.11.2018 10:00:00 - - - - - - -
11.11.2018 09:00:00 - - - - - - -
11.11.2018 08:00:00 - - - - - - -
11.11.2018 07:00:00 - - - - - - -
11.11.2018 06:00:00 - - - - - - -
11.11.2018 05:00:00 - - - - - - -
11.11.2018 04:00:00 - - - - - - -
11.11.2018 03:00:00 - - - - - - -
11.11.2018 02:00:00 - - - - - - -
11.11.2018 01:00:00 - - - - - - -
11.11.2018 00:00:00 - - - - - - -
10.11.2018 23:00:00 - - - - - - -
10.11.2018 22:00:00 11,2 9,6 5 3 NNE 1017,6 12
10.11.2018 21:00:00 11,0 9,0 4 2 ENE - 10
10.11.2018 20:00:00 11,0 9,0 5 3 NNE - 10
10.11.2018 19:00:00 12,0 10,1 2 1 S 1016,9 12
10.11.2018 18:00:00 13,0 11,0 4 2 SE - 10
10.11.2018 17:00:00 13,0 11,0 2 1 ESE - 10
10.11.2018 16:00:00 13,4 10,9 4 2 NE 1016,5 8
10.11.2018 15:00:00 14,0 11,0 2 1 SO - 10
10.11.2018 14:00:00 13,0 11,0 2 1 SO - 8
10.11.2018 13:00:00 12,4 10,1 5 3 O 1017,2 7
10.11.2018 12:00:00 12,0 10,0 4 2 O - 5
10.11.2018 11:00:00 11,0 9,0 0 0 N - 4,0
10.11.2018 10:00:00 11,4 9,8 5 3 S 1018,0 2,0
10.11.2018 09:00:00 11,0 9,0 5 3 S - 1,5
10.11.2018 08:00:00 11,0 8,0 4 2 SO - 0,5
10.11.2018 07:00:00 10,8 9,2 4 2 OSO 1017,5 0,6
10.11.2018 06:00:00 11,0 9,0 5 3 OSO - 0,6
10.11.2018 05:00:00 11,0 10,0 5 3 SO - 0,7
10.11.2018 04:00:00 - - - - - - -
10.11.2018 03:00:00 - - - - - - -
10.11.2018 02:00:00 - - - - - - -
10.11.2018 01:00:00 - - - - - - -
10.11.2018 00:00:00 - - - - - - -
09.11.2018 23:00:00 - - - - - - -
09.11.2018 22:00:00 11,4 9,8 5 3 OSO 1018,6 0,3
09.11.2018 21:00:00 12,0 10,0 4 2 S - 0,2
09.11.2018 20:00:00 12,0 10,0 2 1 SO - 0,2
09.11.2018 19:00:00 11,6 10,0 4 2 SO 1018,2 0,1
09.11.2018 18:00:00 12,0 11,0 4 2 S - 1,5
09.11.2018 17:00:00 14,0 12,0 8 4 SSO - 5
09.11.2018 16:00:00 15,0 12,9 8 4 SO 1017,7 11
09.11.2018 15:00:00 17,0 13,0 9 5 SSO - 10
09.11.2018 14:00:00 16,0 13,0 8 4 SSO - 10
09.11.2018 13:00:00 15,6 13,1 8 4 S 1018,5 13
09.11.2018 12:00:00 15,0 13,0 8 4 SO - 10
09.11.2018 11:00:00 14,0 12,0 5 3 SO - 10
09.11.2018 10:00:00 12,6 11,3 4 2 OSO 1019,6 5
09.11.2018 09:00:00 11,0 9,0 2 1 OSO - 10
09.11.2018 08:00:00 9,0 8,0 2 1 SO - 10

tt = Temperatura
td = dewpoint
ff = velocità del vento
dd = direzione del vento
ppp = reduced air pressure
vv = visibility

Stazioni seguenti

WeatherPro
AMSI
MeteoEarth